Location: Gallinara
(44.0333°N, 8.2333°E)
Time: 01:34:32
(UTC+00:00)

COSMO-SKYMED 1 - Pass Details

Date: 25 September 2020
Orbit: 621 x 623 km, 97.9° (Epoch: 31 October)

Event Time Altitude Azimuth Distance (km) Brightness Sun altitude
Rises 04:40:30 0° 168° (SSE) 2,890 6.1 -7.6°
Reaches altitude 10° 04:42:40 10° 169° (S) 1,988 5.2 -7.2°
Maximum altitude 04:47:00 81° 257° (WSW) 638 2.5 -6.4°
Drops below altitude 10° 04:51:23 10° 345° (NNW) 2,004 5.1 -5.6°
Sets 04:53:35 0° 347° (NNW) 2,915 5.9 -5.2°
